Flag for U.S.A. Weather past 2 weeks in Farmington, New Mexico, U.S.A.

Now
32 °F

Light snow. Ice fog.


Feels Like: 24 °F
Forecast: 36 / 42 °F
Wind: 10 mph from East

Location: Four Corners Regional Airport

Current Time: Jan 30, 2015 at 10:58:20 AM

Latest Report: Jan 30, 2015 at 9:53 AM


Visibility: 1 mi

Pressure: 30.20 "Hg

Humidity: 96%

Dew point: 31 °F

Location of FarmingtonLocation

Historic Weather in Farmington — Graph

°F

Farmington temperature yesterday

Maximum temperature yesterday: 54 °F (at 1:53 PM)
Minimum temperature yesterday: 32 °F (at 5:53 AM)
Average temperature yesterday: 43 °F

Past Weeks' High & Low Weather Summary

 TemperatureHumidityPressure
High59 °F (Jan 27, 2:53 PM)100% (Jan 16, 8:53 PM)30.52 "Hg (Jan 16, 8:53 PM)
Low15 °F (Jan 23, 6:53 AM)28% (Jan 26, 1:53 PM)29.96 "Hg (Jan 21, 4:53 PM)
Average34 °F69%30.32 "Hg
* Reported Jan 15 8:04 AM — Jan 30 8:53 AM, Farmington, Weather by CustomWeather, © 2014

Note: Actual official high and low records may vary slightly from our data, if they occured in-between our weather recording intervals... More about our weather records

Advertising

Farmington weather history for previous 24 hours

 ConditionsComfort  
Time TempWeatherWind HumidityBarometerVisibility
8:53 AM
Jan 30
32 °FSnow. Fog.9 mph96%30.20 "Hg1 mi
7:53 AM32 °FLight snow. Ice fog.9 mph96%30.21 "Hg1 mi
6:53 AM32 °FLight snow. Ice fog.9 mph96%30.22 "Hg1 mi
5:53 AM32 °FLight snow. Ice fog.7 mph96%30.23 "Hg1 mi
5:00 AM32 °FLight snow. Ice fog.9 mph96%30.25 "Hg1 mi
3:53 AM33 °FLight snow. Fog.10 mph92%30.25 "Hg2 mi
2:53 AM33 °FLight snow. Fog.14 mph96%30.28 "Hg4 mi
1:53 AM36 °FLight rain. Overcast.20 mph79%30.28 "Hg10 mi
12:53 AM42 °FOvercast.5 mph47%30.26 "Hg10 mi
11:53 PM
Jan 29
43 °FOvercast.12 mph47%30.26 "Hg10 mi
10:53 PM44 °FMostly cloudy.9 mph47%30.29 "Hg10 mi
9:53 PM44 °FMostly cloudy.9 mph51%30.30 "Hg10 mi
8:53 PM45 °FPartly cloudy.8 mph49%30.31 "Hg10 mi
7:53 PM47 °FOvercast.10 mph48%30.30 "Hg10 mi
6:53 PM48 °FMostly cloudy.14 mph46%30.31 "Hg10 mi
5:53 PM49 °FMostly cloudy.8 mph44%30.29 "Hg10 mi
4:53 PM50 °FOvercast.12 mph41%30.29 "Hg10 mi
3:53 PM51 °FPartly sunny.16 mph41%30.28 "Hg10 mi
2:53 PM52 °FSunny.17 mph41%30.27 "Hg10 mi
1:53 PM54 °FPassing clouds.16 mph38%30.27 "Hg10 mi
12:53 PM52 °FPassing clouds.12 mph43%30.31 "Hg10 mi
11:53 AM50 °FPassing clouds.8 mph46%30.34 "Hg10 mi
10:53 AM43 °FSunny.6 mph60%30.39 "Hg10 mi
Weather by CustomWeather, © 2014

See weather overviewHow to use our weather pages